Simultaneous Nadir Overpasses (SNOs) Predictions

Prediction of SNOs between AQUA and NOAA-19 Satellite Orbit:

Table of predicted SNOs for the next 14.0 days since TLE Epoch: 2/5/2022
Index Date (AQUA) Time (AQUA) Lat,Lon (AQUA) SZA (AQUA ) Date (NOAA-19) Time (NOAA-19) Lat,Lon (NOAA-19) SZA (NOAA-19 ) Distance(km) Time Diff (sec)
1 02/06/2022 23:10:09 78.03, 173.85 94.20 02/06/2022 23:09:12 78.00, 173.89 94.19 3.75 57
2 02/06/2022 23:59:35 -78.03, -18.50 85.82 02/07/2022 00:00:06 -78.04, -18.56 85.81 2.26 31
3 02/09/2022 05:33:16 78.01, 78.18 93.46 02/09/2022 05:33:14 78.01, 78.03 93.47 3.56 2
4 02/11/2022 11:06:56 -77.99, 174.82 87.29 02/11/2022 11:06:12 -77.98, 174.74 87.27 2.28 44
5 02/11/2022 11:56:24 78.04, -17.76 92.77 02/11/2022 11:57:15 78.05, -17.64 92.75 2.94 51
6 02/13/2022 16:40:34 77.87, -88.04 91.82 02/13/2022 16:39:24 77.78, -89.59 91.88 37.84 70
7 02/13/2022 17:30:03 -78.00, 79.02 88.03 02/13/2022 17:30:13 -78.03, 79.07 88.01 3.21 10
8 02/15/2022 23:03:43 77.99, 175.68 91.19 02/15/2022 23:03:20 78.01, 175.77 91.21 3.30 23
9 02/15/2022 23:53:10 -78.02, -16.86 88.78 02/15/2022 23:54:15 -78.03, -16.82 88.79 1.31 65
10 02/18/2022 04:37:22 -77.97, -87.67 89.61 02/18/2022 04:36:19 -77.96, -87.68 89.60 1.71 63



Historial Predications of SNOs between AQUA and NOAA-19
